When you browse on this site, cookies collect data to enhance your experience and personalize the content and advertising you see.
Visit our Privacy Policy to learn more. By continuing to use the site, you agree to this use of cookies and data.
  • In Sweden
  • List of Countries
  • For 7 days
  • Water Temperature
  • Satellite Maps
  • Weather Map
  • Weather Widgets
  • user-avatar
    Login

    Hourly Weather Gieski

    Today, 26 April, Friday

    Time Temperature Precipitation Wind Pressure Humidity
    00:00 +16°C° 0 mm 2 mps 741 mmHg 80%
    01:00 +16°C° 0 mm 2 mps 740 mmHg 80%
    02:00 +15°C° 0 mm 2 mps 740 mmHg 80%
    03:00 +15°C° 0 mm 2 mps 740 mmHg 80%
    04:00 +15°C° 0 mm 2 mps 740 mmHg 80%
    05:00 +16°C° 0 mm 3 mps 740 mmHg 76%
    06:00 +17°C° 0 mm 3 mps 739 mmHg 71%
    07:00 +19°C° 0 mm 4 mps 739 mmHg 66%
    08:00 +20°C° 0 mm 4 mps 739 mmHg 60%
    09:00 +22°C° 0 mm 4 mps 739 mmHg 53%
    10:00 +25°C° 0 mm 4 mps 739 mmHg 47%
    11:00 +26°C° 0 mm 4 mps 738 mmHg 43%
    12:00 +27°C° 0 mm 4 mps 738 mmHg 40%
    13:00 +27°C° 0 mm 3 mps 738 mmHg 36%
    14:00 +27°C° 0 mm 3 mps 738 mmHg 37%
    15:00 +27°C° 0 mm 3 mps 738 mmHg 37%
    16:00 +27°C° 0 mm 3 mps 737 mmHg 38%
    17:00 +25°C° 0 mm 2 mps 737 mmHg 44%
    18:00 +24°C° 0 mm 2 mps 737 mmHg 50%
    19:00 +22°C° 0 mm 1 mps 737 mmHg 55%
    20:00 +20°C° 0 mm 2 mps 737 mmHg 58%
    21:00 +19°C° 0 mm 2 mps 737 mmHg 60%
    22:00 +18°C° 0 mm 3 mps 736 mmHg 63%
    23:00 +18°C° 0 mm 3 mps 737 mmHg 65%

    Tomorrow, 27 April, Saturday

    Time Temperature Precipitation Wind Pressure Humidity
    00:00 +17°C° 0 mm 3 mps 737 mmHg 67%
    01:00 +17°C° 0 mm 3 mps 737 mmHg 70%
    02:00 +15°C° 0 mm 4 mps 737 mmHg 78%
    03:00 +14°C° 0 mm 4 mps 736 mmHg 86%
    04:00 +14°C° 0 mm 5 mps 736 mmHg 94%
    05:00 +14°C° 0.2 mm 5 mps 737 mmHg 92%
    06:00 +14°C° 0.2 mm 5 mps 737 mmHg 90%
    07:00 +15°C° 0.2 mm 5 mps 738 mmHg 89%
    08:00 +14°C° 0.1 mm 5 mps 738 mmHg 88%
    09:00 +14°C° 0.1 mm 5 mps 738 mmHg 88%
    10:00 +14°C° 0.1 mm 6 mps 739 mmHg 87%
    11:00 +14°C° 0.1 mm 6 mps 739 mmHg 84%
    12:00 +14°C° 0.1 mm 6 mps 739 mmHg 81%
    13:00 +13°C° 0.1 mm 5 mps 739 mmHg 79%
    14:00 +14°C° 0 mm 5 mps 739 mmHg 76%
    15:00 +14°C° 0 mm 5 mps 740 mmHg 74%
    16:00 +14°C° 0 mm 5 mps 740 mmHg 71%
    17:00 +13°C° 0 mm 5 mps 740 mmHg 72%
    18:00 +13°C° 0 mm 4 mps 740 mmHg 73%
    19:00 +12°C° 0 mm 3 mps 740 mmHg 74%
    20:00 +11°C° 0 mm 3 mps 740 mmHg 74%
    21:00 +11°C° 0 mm 3 mps 740 mmHg 75%
    22:00 +10°C° 0 mm 3 mps 740 mmHg 75%
    23:00 +10°C° 0 mm 3 mps 741 mmHg 75%

    Day after tomorrow, 28 April, Sunday

    Time Temperature Precipitation Wind Pressure Humidity
    00:00 +10°C° 0 mm 3 mps 741 mmHg 74%
    01:00 +9°C° 0 mm 3 mps 741 mmHg 73%
    02:00 +9°C° 0 mm 3 mps 741 mmHg 73%
    03:00 +9°C° 0 mm 3 mps 741 mmHg 72%
    04:00 +9°C° 0 mm 3 mps 741 mmHg 71%
    05:00 +10°C° 0 mm 4 mps 741 mmHg 73%
    06:00 +10°C° 0 mm 4 mps 742 mmHg 75%
    07:00 +10°C° 0 mm 5 mps 742 mmHg 76%
    08:00 +10°C° 0.1 mm 5 mps 742 mmHg 78%
    09:00 +10°C° 0.1 mm 6 mps 742 mmHg 79%
    10:00 +10°C° 0.1 mm 6 mps 742 mmHg 80%
    11:00 +10°C° 0.3 mm 6 mps 742 mmHg 79%
    12:00 +10°C° 0.3 mm 6 mps 743 mmHg 77%
    13:00 +12°C° 0.3 mm 5 mps 743 mmHg 75%
    14:00 +12°C° 0.5 mm 5 mps 743 mmHg 77%
    15:00 +10°C° 0.5 mm 5 mps 743 mmHg 79%
    16:00 +11°C° 0.5 mm 4 mps 743 mmHg 81%
    17:00 +11°C° 0.5 mm 4 mps 743 mmHg 83%
    18:00 +11°C° 0.5 mm 3 mps 743 mmHg 86%
    19:00 +10°C° 0.5 mm 3 mps 743 mmHg 89%
    20:00 +10°C° 0.4 mm 3 mps 743 mmHg 90%
    21:00 +10°C° 0.4 mm 4 mps 743 mmHg 91%
    22:00 +10°C° 0.4 mm 4 mps 743 mmHg 92%
    23:00 +10°C° 0.1 mm 4 mps 743 mmHg 92%

    29 April, Monday

    Time Temperature Precipitation Wind Pressure Humidity
    00:00 +8°C° 0.1 mm 5 mps 743 mmHg 92%
    01:00 +8°C° 0.1 mm 5 mps 743 mmHg 92%
    02:00 +8°C° 0.1 mm 5 mps 742 mmHg 92%
    03:00 +8°C° 0.1 mm 5 mps 742 mmHg 91%
    04:00 +7°C° 0.1 mm 5 mps 742 mmHg 90%
    05:00 +7°C° 0.1 mm 5 mps 742 mmHg 89%
    06:00 +8°C° 0.1 mm 5 mps 742 mmHg 88%
    07:00 +8°C° 0.1 mm 6 mps 742 mmHg 88%
    08:00 +8°C° 0.6 mm 6 mps 742 mmHg 89%
    09:00 +8°C° 0.6 mm 5 mps 742 mmHg 90%
    10:00 +8°C° 0.6 mm 5 mps 741 mmHg 90%
    11:00 +8°C° 2.4 mm 5 mps 741 mmHg 92%
    12:00 +8°C° 2.4 mm 4 mps 741 mmHg 93%
    13:00 +8°C° 2.4 mm 4 mps 741 mmHg 94%
    14:00 +10°C° 0.3 mm 4 mps 741 mmHg 95%
    15:00 +10°C° 0.3 mm 3 mps 740 mmHg 96%
    16:00 +10°C° 0.3 mm 3 mps 740 mmHg 96%
    17:00 +10°C° 0.1 mm 3 mps 740 mmHg 96%
    18:00 +11°C° 0.1 mm 3 mps 740 mmHg 97%
    19:00 +12°C° 0.1 mm 2 mps 740 mmHg 97%
    20:00 +11°C° 0 mm 3 mps 740 mmHg 96%
    21:00 +10°C° 0 mm 3 mps 740 mmHg 96%
    22:00 +10°C° 0 mm 3 mps 740 mmHg 95%
    23:00 +9°C° 0 mm 3 mps 740 mmHg 95%

    30 April, Tuesday

    Time Temperature Precipitation Wind Pressure Humidity
    00:00 +9°C° 0 mm 3 mps 740 mmHg 96%
    01:00 +8°C° 0 mm 3 mps 740 mmHg 96%
    02:00 +8°C° 0 mm 3 mps 741 mmHg 96%
    03:00 +8°C° 0 mm 3 mps 741 mmHg 96%
    04:00 +8°C° 0 mm 3 mps 741 mmHg 95%
    05:00 +9°C° 0.1 mm 3 mps 741 mmHg 91%
    06:00 +10°C° 0.1 mm 3 mps 741 mmHg 87%
    07:00 +11°C° 0.1 mm 3 mps 741 mmHg 84%
    08:00 +12°C° 0.1 mm 3 mps 742 mmHg 75%
    09:00 +13°C° 0.1 mm 4 mps 742 mmHg 67%
    10:00 +14°C° 0.1 mm 4 mps 742 mmHg 59%
    11:00 +14°C° 0 mm 4 mps 741 mmHg 58%
    12:00 +14°C° 0 mm 4 mps 741 mmHg 56%
    13:00 +15°C° 0 mm 4 mps 741 mmHg 54%
    14:00 +15°C° 0 mm 4 mps 741 mmHg 53%
    15:00 +15°C° 0 mm 4 mps 741 mmHg 52%
    16:00 +15°C° 0 mm 4 mps 740 mmHg 51%
    17:00 +14°C° 0 mm 3 mps 741 mmHg 54%
    18:00 +13°C° 0 mm 3 mps 741 mmHg 57%
    19:00 +12°C° 0 mm 3 mps 741 mmHg 60%
    20:00 +12°C° 0 mm 2 mps 741 mmHg 60%
    21:00 +12°C° 0 mm 2 mps 741 mmHg 60%
    22:00 +12°C° 0 mm 2 mps 741 mmHg 60%
    23:00 +12°C° 0 mm 2 mps 741 mmHg 62%

    1 May, Wednesday

    Time Temperature Precipitation Wind Pressure Humidity
    00:00 +10°C° 0 mm 2 mps 741 mmHg 63%
    01:00 +10°C° 0 mm 2 mps 741 mmHg 65%
    02:00 +9°C° 0 mm 2 mps 741 mmHg 67%
    03:00 +8°C° 0 mm 2 mps 741 mmHg 69%
    04:00 +7°C° 0 mm 2 mps 741 mmHg 72%
    05:00 +8°C° 0 mm 2 mps 741 mmHg 69%
    06:00 +9°C° 0 mm 2 mps 741 mmHg 66%
    07:00 +10°C° 0 mm 2 mps 741 mmHg 62%
    08:00 +11°C° 0 mm 3 mps 741 mmHg 56%
    09:00 +12°C° 0 mm 3 mps 741 mmHg 50%
    10:00 +13°C° 0 mm 3 mps 741 mmHg 44%
    11:00 +13°C° 0 mm 3 mps 740 mmHg 44%
    12:00 +14°C° 0 mm 3 mps 740 mmHg 44%
    13:00 +14°C° 0 mm 3 mps 740 mmHg 45%
    14:00 +13°C° 0 mm 3 mps 740 mmHg 46%
    15:00 +14°C° 0 mm 2 mps 740 mmHg 47%
    16:00 +14°C° 0 mm 2 mps 739 mmHg 48%
    17:00 +13°C° 0 mm 2 mps 739 mmHg 50%
    18:00 +13°C° 0 mm 1 mps 739 mmHg 52%
    19:00 +12°C° 0 mm 1 mps 739 mmHg 55%
    20:00 +10°C° 0 mm 0 mps 739 mmHg 55%
    21:00 +10°C° 0 mm 0 mps 739 mmHg 56%
    22:00 +9°C° 0 mm 0 mps 739 mmHg 57%
    23:00 +8°C° 0 mm 0 mps 739 mmHg 59%
    Show more